Location: Unspecified
(0.0000°N, 0.0000°E)
Time: 23:35:38
(UTC+00:00)

STARLINK-33781 - Visible Passes

Search period start: 20 June 2025 00:00
Search period end: 30 June 2025 00:00
Orbit: 479 x 482 km, 43.0° (Epoch: 20 June)

Date Brightness Start Highest point End Pass type
(mag) Time Alt. Az. Time Alt. Az. Time Alt. Az.
21 Jun 3.6 19:29:24 10° SW 19:32:30 53° S 19:32:30 53° S visible
22 Jun 3.3 19:00:42 10° SW 19:04:24 61° SE 19:08:06 10° NE visible
23 Jun 3.4 18:31:53 10° SSW 18:35:33 56° SE 18:39:13 10° NE visible
25 Jun 6.9 19:15:25 10° WNW 19:16:14 11° NW 19:17:04 10° NNW visible
26 Jun 4.6 05:19:19 10° NNW 05:22:53 44° NE 05:26:28 10° ESE visible
26 Jun 6.8 18:45:42 10° WNW 18:47:01 11° NW 18:48:21 10° NNW visible
27 Jun 4.7 04:50:07 10° NNW 04:53:37 40° NE 04:57:09 10° ESE visible
28 Jun 4.8 04:21:24 14° NNW 04:24:15 36° NE 04:27:43 10° ESE visible
29 Jun 5.7 03:56:32 21° E 03:56:32 21° E 03:58:09 10° ESE visible
29 Jun 5.1 05:31:23 10° WSW 05:33:27 14° SW 05:35:31 10° S visible
